Flag for U.S.A. Weather past 2 weeks in Lexington, Virginia, U.S.A.

Now
57 °F

Low clouds.


Feels Like: 55 °F
Forecast: 62 / 71 °F
Wind: 7 mph from Southeast

Location: Hot Springs / Ingalls

Current Time: Aug 1, 2014 at 12:01:15 PM

Latest Report: Aug 1, 2014 at 11:15 AM


Visibility: 7 mi

Pressure: 30.31 "Hg

Humidity: 93%

Dew point: 55 °F

Location of LexingtonLocation

Historic Weather in Lexington — Graph

°F

Lexington temperature yesterday

Maximum temperature yesterday: 70 °F (at 3:15 PM)
Minimum temperature yesterday: 54 °F (at 2:15 AM)
Average temperature yesterday: 61 °F

Past Weeks' High & Low Weather Summary

 TemperatureHumidityPressure
High80 °F (Jul 23, 3:15 PM)100% (Jul 28, 10:35 PM)30.35 "Hg (Jul 28, 10:35 PM)
Low48 °F (Jul 30, 5:55 AM)39% (Jul 17, 5:15 PM)29.82 "Hg (Jul 28, 7:35 AM)
Average61 °F81%30.17 "Hg
* Reported Jul 17 10:15 AM — Aug 1 10:55 AM, Lexington, Weather by CustomWeather, © 2014

Note: Actual official high and low records may vary slightly from our data, if they occured in-between our weather recording intervals... More about our weather records

Advertising

Lexington weather history for previous 24 hours

 ConditionsComfort  
Time TempWeatherWind HumidityBarometerVisibility
10:55 AM
Aug 1
56 °FMostly cloudy.8 mph93%30.31 "Hg10 mi
10:35 AM56 °FMostly cloudy.8 mph94%30.31 "Hg10 mi
10:15 AM56 °FFog.7 mph95%30.31 "Hg1 mi
9:55 AM56 °FFog.8 mph95%30.30 "Hg0 mi
9:35 AM56 °FLight rain. Low clouds.9 mph94%30.30 "Hg1 mi
9:15 AM56 °FLight rain. Low clouds.7 mph94%30.30 "Hg0 mi
8:55 AM56 °FLight rain. Low clouds.7 mph94%30.29 "Hg0 mi
8:35 AM56 °FFog.6 mph94%30.29 "Hg2 mi
8:15 AM57 °FLight rain. Low clouds.9 mph94%30.29 "Hg0 mi
7:55 AM57 °FLight rain. Low clouds.6 mph94%30.28 "Hg0 mi
7:35 AM57 °FFog.5 mph94%30.28 "Hg0 mi
7:15 AM57 °FFog.5 mph94%30.28 "Hg1 mi
6:55 AM57 °FFog.5 mph94%30.27 "Hg4 mi
6:35 AM57 °FPartly cloudy.7 mph93%30.27 "Hg10 mi
6:15 AM57 °FPartly cloudy.6 mph94%30.27 "Hg7 mi
5:55 AM57 °FFog.8 mph94%30.27 "Hg5 mi
5:35 AM57 °FFog.7 mph94%30.27 "Hg4 mi
5:15 AM58 °FFog.7 mph93%30.26 "Hg4 mi
4:55 AM58 °FPartly cloudy.6 mph92%30.26 "Hg7 mi
4:35 AM58 °FPassing clouds.6 mph91%30.26 "Hg7 mi
4:15 AM59 °FMostly cloudy.6 mph89%30.27 "Hg10 mi
3:55 AM59 °FMostly cloudy.3 mph87%30.27 "Hg10 mi
3:35 AM60 °FPassing clouds.3 mph83%30.27 "Hg10 mi
3:15 AM60 °FPartly cloudy.5 mph77%30.27 "Hg10 mi
2:55 AM61 °FOvercast.5 mph73%30.27 "Hg10 mi
2:35 AM61 °FOvercast.3 mph74%30.27 "Hg10 mi
2:15 AM60 °FOvercast.5 mph79%30.27 "Hg10 mi
1:55 AM61 °FPassing clouds.5 mph77%30.28 "Hg10 mi
1:35 AM60 °FPassing clouds.7 mph77%30.28 "Hg10 mi
1:15 AM60 °FOvercast.6 mph79%30.29 "Hg10 mi
12:55 AM60 °FOvercast.8 mph85%30.29 "Hg10 mi
11:55 PM
Jul 31
59 °FDrizzle. Mostly cloudy.6 mph88%30.29 "Hg10 mi
11:35 PM58 °FRain. Mostly cloudy.7 mph86%30.30 "Hg10 mi
10:55 PM58 °FOvercast.7 mph82%30.29 "Hg10 mi
10:35 PM59 °FOvercast.7 mph75%30.29 "Hg10 mi
10:15 PM59 °FOvercast.9 mph79%30.29 "Hg10 mi
9:55 PM58 °FPartly cloudy.8 mph81%30.28 "Hg10 mi
9:35 PM59 °FPassing clouds.8 mph85%30.28 "Hg10 mi
9:15 PM60 °FThundershowers. Scattered clouds.7 mph91%30.27 "Hg10 mi
8:55 PM60 °FScattered clouds.8 mph93%30.27 "Hg10 mi
8:35 PM61 °FSunny.9 mph83%30.27 "Hg10 mi
8:15 PM62 °FSunny.8 mph83%30.26 "Hg10 mi
7:55 PM64 °FSunny.7 mph80%30.26 "Hg10 mi
7:20 PM64 °FSunny.7 mph76%30.26 "Hg10 mi
6:55 PM66 °FSunny.7 mph70%30.26 "Hg10 mi
6:35 PM67 °FSunny.7 mph65%30.26 "Hg10 mi
6:15 PM67 °FScattered clouds.7 mph64%30.25 "Hg10 mi
5:55 PM67 °FBroken clouds.6 mph64%30.26 "Hg10 mi
5:35 PM66 °FBroken clouds.6 mph64%30.25 "Hg10 mi
4:55 PM70 °FBroken clouds.5 mph51%30.26 "Hg10 mi
4:35 PM67 °FBroken clouds.3 mph58%30.26 "Hg10 mi
4:20 PM67 °FBroken clouds.3 mph60%30.26 "Hg10 mi
3:55 PM69 °FScattered clouds.12 mph51%30.26 "Hg10 mi
3:35 PM70 °FScattered clouds.10 mph43%30.26 "Hg10 mi
3:15 PM70 °FPartly sunny.9 mph46%30.26 "Hg10 mi
2:50 PM68 °FBroken clouds.7 mph46%30.26 "Hg10 mi
2:35 PM67 °FBroken clouds.5 mph51%30.27 "Hg10 mi
2:15 PM68 °FScattered clouds.3 mph52%30.27 "Hg10 mi
1:55 PM67 °FScattered clouds.5 mph51%30.27 "Hg10 mi
1:35 PM67 °FPartly sunny.7 mph55%30.27 "Hg10 mi
1:15 PM67 °FPartly sunny.5 mph55%30.27 "Hg10 mi
12:55 PM67 °FScattered clouds.8 mph50%30.27 "Hg10 mi
12:15 PM65 °FScattered clouds.8 mph60%30.27 "Hg10 mi
Weather by CustomWeather, © 2014

See weather overviewHow to use our weather pages